Flag for Senegal Weather past 2 weeks in Dakar, Senegal

Now
77 °F

Clear.


Feels Like: 78 °F
Forecast: 77 / 89 °F
Wind: No wind

Location: Dakar / Yoff

Current Time: Oct 26, 2014 at 1:49:46 AM

Latest Report: Oct 26, 2014 at 1:30 AM


Visibility: 10 mi

Pressure: 29.86 "Hg

Humidity: 89%

Dew point: 73 °F

Location of DakarLocation

Historic Weather in Dakar — Graph

°F

Dakar temperature yesterday

Maximum temperature yesterday: 90 °F (at 1:00 PM)
Minimum temperature yesterday: 77 °F (at 7:30 AM)
Average temperature yesterday: 83 °F

Past Weeks' High & Low Weather Summary

 TemperatureHumidityPressure
High93 °F (Oct 15, 3:00 PM)94% (Oct 13, 2:30 AM)29.98 "Hg (Oct 13, 2:30 AM)
Low77 °F (Oct 13, 1:30 AM)49% (Oct 15, 3:00 PM)29.77 "Hg (Oct 18, 4:00 PM)
Average83 °F80%29.88 "Hg
* Reported Oct 11 1:00 AM — Oct 26 1:00 AM, Dakar, Weather by CustomWeather, © 2014

Note: Actual official high and low records may vary slightly from our data, if they occured in-between our weather recording intervals... More about our weather records

Advertising

Dakar weather history for previous 24 hours

 ConditionsComfort  
Time TempWeatherWind HumidityBarometerVisibility
1:00 AM
Oct 26
79 °FClear.2 mph89%29.89 "Hg10 mi
12:30 AM79 °FClear.3 mph89%29.89 "Hg10 mi
12:00 AM79 °FClear.3 mph89%29.89 "Hg10 mi
11:30 PM
Oct 25
81 °FClear.5 mph84%29.89 "Hg10 mi
11:00 PM81 °FClear.5 mph84%29.86 "Hg10 mi
10:30 PM81 °FClear.3 mph84%29.86 "Hg10 mi
10:00 PM81 °FClear.5 mph84%29.86 "Hg10 mi
9:30 PM81 °FClear.5 mph84%29.86 "Hg10 mi
9:00 PM81 °FClear.3 mph84%29.86 "Hg10 mi
8:30 PM81 °FClear.3 mph84%29.86 "Hg10 mi
8:00 PM81 °FPassing clouds.5 mph84%29.83 "HgN/A
7:30 PM81 °FPassing clouds.5 mph84%29.83 "HgN/A
7:00 PM82 °FPassing clouds.5 mph79%29.83 "HgN/A
6:30 PM82 °FPartly sunny.7 mph74%29.83 "HgN/A
6:00 PM84 °FPassing clouds.7 mph74%29.80 "HgN/A
5:30 PM86 °FPassing clouds.7 mph70%29.80 "HgN/A
5:00 PM86 °FPassing clouds.6 mph66%29.83 "HgN/A
4:30 PM88 °FPassing clouds.7 mph62%29.83 "HgN/A
4:00 PM88 °FPassing clouds.8 mph66%29.83 "HgN/A
3:30 PM88 °FPassing clouds.8 mph62%29.83 "HgN/A
3:00 PM88 °FPassing clouds.8 mph59%29.83 "HgN/A
2:30 PM88 °FScattered clouds.8 mph59%29.86 "HgN/A
2:00 PM88 °FScattered clouds.8 mph62%29.86 "HgN/A
1:30 PM88 °FScattered clouds.8 mph66%29.86 "HgN/A
1:00 PM90 °FScattered clouds.7 mph59%29.89 "HgN/A
12:30 PM88 °FScattered clouds.7 mph66%29.89 "HgN/A
12:00 PM88 °FScattered clouds.7 mph66%29.89 "HgN/A
11:30 AM88 °FScattered clouds.6 mph66%29.92 "HgN/A
11:00 AM86 °FScattered clouds.5 mph75%29.89 "HgN/A
10:30 AM84 °FScattered clouds.7 mph79%29.89 "HgN/A
10:00 AM84 °FBroken clouds.6 mph79%29.89 "HgN/A
9:30 AM84 °FBroken clouds.7 mph79%29.89 "HgN/A
9:00 AM82 °FBroken clouds.6 mph84%29.86 "HgN/A
8:30 AM81 °FBroken clouds.5 mph89%29.86 "HgN/A
8:00 AM79 °FBroken clouds.3 mph94%29.86 "HgN/A
7:30 AM77 °FBroken clouds.1 mph94%29.83 "HgN/A
7:00 AM79 °FPassing clouds.1 mph89%29.83 "HgN/A
6:30 AM79 °FPassing clouds.2 mph94%29.83 "HgN/A
6:00 AM79 °FPassing clouds.2 mph94%29.80 "HgN/A
5:30 AM79 °FPassing clouds.3 mph89%29.80 "HgN/A
5:00 AM79 °FPassing clouds.2 mph94%29.80 "HgN/A
4:30 AM79 °FPassing clouds.3 mph89%29.80 "HgN/A
4:00 AM79 °FPassing clouds.3 mph94%29.80 "HgN/A
3:30 AM79 °FPassing clouds.2 mph94%29.83 "HgN/A
3:00 AM79 °FPassing clouds.3 mph94%29.83 "HgN/A
2:30 AM79 °FPassing clouds.2 mph94%29.83 "HgN/A
2:00 AM81 °FPassing clouds.2 mph89%29.83 "HgN/A
1:30 AM81 °FPassing clouds.2 mph89%29.83 "HgN/A
1:00 AM81 °FClear.3 mph89%29.86 "Hg10 mi
Weather by CustomWeather, © 2014

See weather overviewHow to use our weather pages